This demonstration page uses our WeatherBlox Daily Observations layout. Learn more.

Left ArrowRight Arrow

Hourly Observations for June 6, 2018

Temp ( °F °C ) Dew Point ( °F °C ) Humidity (%) Winds ( mph kmh ) Pressure ( in mb ) Visibility ( mi km ) Precip ( " mm )
12:53 am 00:53 Clear 75 23.9 66 18.9 74 74 S 6 9 29.77 1008 10 16 0.00 0.00
1:53 am 01:53 Clear 73 22.8 66 18.9 79 79 S 8 13 29.76 1008 10 16 0.00 0.00
2:53 am 02:53 Clear 71 21.7 65 18.3 81 81 S 6 9 29.78 1008 10 16 0.00 0.00
3:53 am 03:53 Clear 70 21.1 65 18.3 84 84 S 6 9 29.79 1009 10 16 0.00 0.00
4:53 am 04:53 Clear 69 20.6 65 18.3 87 87 SSW 7 11 29.81 1009 10 16 0.00 0.00
5:53 am 05:53 Clear 70 21.1 66 18.9 87 87 SSW 6 9 29.81 1010 10 16 0.00 0.00
6:53 am 06:53 Sunny 70 21.1 66 18.9 87 87 Calm 29.83 1010 8 13 0.00 0.00
7:53 am 07:53 Sunny with Mist and Fog 71 21.7 67 19.4 87 87 Calm 29.83 1010 6 10 0.00 0.00
8:53 am 08:53 Sunny 74 23.3 69 20.6 85 85 SSE 8 13 29.83 1010 9 14 0.00 0.00
9:53 am 09:53 Sunny 78 25.6 71 21.7 79 79 SSE 8 13 29.82 1010 10 16 0.00 0.00
10:53 am 10:53 Sunny 82 27.8 72 22.2 72 72 SSE 13 20 29.82 1010 10 16 0.00 0.00
11:53 am 11:53 Sunny 87 30.6 70 21.1 57 57 S 12 19 29.82 1010 10 16 0.00 0.00
12:53 pm 12:53 Sunny 89 31.7 69 20.6 52 52 SSE 9 15 29.81 1009 10 16 0.00 0.00
1:53 pm 13:53 Sunny 92 33.3 67 19.4 44 44 SSW 12 19 29.80 1009 10 16 0.00 0.00
2:53 pm 14:53 Sunny 92 33.3 67 19.4 44 44 S 14 22 29.80 1009 10 16 0.00 0.00
3:53 pm 15:53 Sunny 89 31.7 70 21.1 53 53 S 13 20 29.80 1009 10 16 0.00 0.00
4:53 pm 16:53 Sunny 91 32.8 70 21.1 50 50 S 12 19 29.79 1009 10 16 0.00 0.00
5:53 pm 17:53 Sunny 89 31.7 67 19.4 48 48 S 12 19 29.78 1008 10 16 0.00 0.00
6:53 pm 18:53 Sunny 90 32.2 63 17.2 41 41 S 8 13 29.76 1008 10 16 0.00 0.00
7:53 pm 19:53 Sunny 89 31.7 60 15.6 38 38 S 8 13 29.75 1008 10 16 0.00 0.00
8:53 pm 20:53 Sunny 83 28.3 61 16.1 48 48 SSE 3 6 29.77 1008 10 16 0.00 0.00
9:53 pm 21:53 Clear 81 27.2 65 18.3 58 58 ESE 8 13 29.80 1009 10 16 0.00 0.00
10:53 pm 22:53 Clear 76 24.4 54 12.2 47 47 E 14 22 29.86 1011 10 16 0.00 0.00
11:53 pm 23:53 Clear 76 24.4 54 12.2 47 47 SE 13 20 29.83 1010 10 16 0.00 0.00

Powered by AerisWeather